SVW451 LSZR-EDDP

Flight info

Callsign SVW451
Flight time 0h 50m
Altitude 39000
Route ALAGO Z1 SUDEN Y710 ETAGO N869 ANELA/N0444F380 M726 LASGA/N0433F310 T202 TABAT T952 GOXLI DCT GOT GOT1L
Aircraft A319/M-SDE3FGHIRWY/LB1

Departure

Time 2026-05-06 14:57
Airport Sankt Gallen Altenrhein Airport (LSZR)

Arrival

Time 2026-05-06 15:47
Airport Leipzig/Halle Airport (EDDP)
Time Latitude Longitude Altitude Speed Heading
2026-05-06 14:43 47.48724 9.55210 1315 ft 0 kts
2026-05-06 14:49 47.48727 9.55210 1314 ft 2 kts
2026-05-06 14:50 47.48744 9.55236 1314 ft 5 kts 77°
2026-05-06 14:50 47.48740 9.55297 1313 ft 8 kts 97°
2026-05-06 14:50 47.48735 9.55342 1313 ft 0 kts 105°
2026-05-06 14:50 47.48729 9.55350 1313 ft 2 kts 144°
2026-05-06 14:51 47.48704 9.55347 1313 ft 4 kts 188°
2026-05-06 14:51 47.48681 9.55342 1314 ft 1 kts 188°
2026-05-06 14:52 47.48680 9.55342 1314 ft 1 kts 188°
2026-05-06 14:52 47.48625 9.55330 1316 ft 10 kts 188°
2026-05-06 14:53 47.48577 9.55377 1319 ft 11 kts 102°
2026-05-06 14:53 47.48561 9.55528 1318 ft 19 kts 98°
2026-05-06 14:53 47.48539 9.55740 1319 ft 22 kts 98°
2026-05-06 14:53 47.48516 9.55965 1318 ft 22 kts 99°
2026-05-06 14:54 47.48492 9.56190 1313 ft 22 kts 99°
2026-05-06 14:54 47.48471 9.56396 1312 ft 20 kts 99°
2026-05-06 14:54 47.48449 9.56606 1310 ft 20 kts 98°
2026-05-06 14:54 47.48430 9.56790 1311 ft 17 kts 98°
2026-05-06 14:55 47.48414 9.56942 1313 ft 12 kts 98°
2026-05-06 14:55 47.48420 9.57035 1316 ft 6 kts 84°
2026-05-06 14:55 47.48406 9.57041 1317 ft 2 kts 212°
2026-05-06 14:55 47.48407 9.57011 1316 ft 0 kts 278°
2026-05-06 14:56 47.48441 9.56678 1311 ft 84 kts 279°
2026-05-06 14:56 47.48576 9.55406 1546 ft 146 kts 276°
2026-05-06 14:57 47.48780 9.53918 2554 ft 155 kts 284°
2026-05-06 14:57 47.49560 9.52657 3256 ft 186 kts 333°
2026-05-06 14:57 47.50901 9.52457 4040 ft 197 kts 356°
2026-05-06 14:57 47.52269 9.52581 5072 ft 197 kts 357°
2026-05-06 14:58 47.53638 9.52739 6030 ft 198 kts 357°
2026-05-06 14:58 47.55023 9.52891 6892 ft 202 kts 357°
2026-05-06 14:58 47.56419 9.53034 7724 ft 205 kts 357°
2026-05-06 14:58 47.57874 9.53172 8614 ft 209 kts 357°
2026-05-06 14:59 47.59342 9.53302 9477 ft 213 kts 357°
2026-05-06 14:59 47.60842 9.53428 10302 ft 219 kts 356°
2026-05-06 14:59 47.62446 9.53519 10801 ft 243 kts 356°
2026-05-06 14:59 47.64178 9.53593 11307 ft 267 kts 357°
2026-05-06 15:00 47.66165 9.53673 11854 ft 293 kts 358°
2026-05-06 15:00 47.68269 9.53498 12333 ft 314 kts 344°
2026-05-06 15:00 47.70389 9.52382 12760 ft 335 kts 333°
2026-05-06 15:00 47.72609 9.50962 13148 ft 359 kts 333°
2026-05-06 15:01 47.74977 9.49436 13553 ft 380 kts 333°
2026-05-06 15:01 47.77441 9.47872 14213 ft 390 kts 335°
2026-05-06 15:01 47.80076 9.46715 14969 ft 399 kts 346°
2026-05-06 15:01 47.82857 9.46260 15717 ft 407 kts 357°
2026-05-06 15:02 47.85704 9.46266 16519 ft 411 kts 359°
2026-05-06 15:02 47.88575 9.46270 17335 ft 415 kts 359°
2026-05-06 15:02 47.91479 9.46263 18119 ft 419 kts 359°
2026-05-06 15:02 47.94410 9.46252 18774 ft 424 kts 359°
2026-05-06 15:03 47.97373 9.46243 19483 ft 427 kts 359°
2026-05-06 15:03 48.00355 9.46232 20166 ft 431 kts 359°
2026-05-06 15:03 48.03375 9.46224 20862 ft 436 kts 359°
2026-05-06 15:03 48.06423 9.46216 21550 ft 440 kts 359°
2026-05-06 15:04 48.09486 9.46206 22184 ft 443 kts 359°
2026-05-06 15:04 48.12587 9.46198 22775 ft 447 kts 359°
2026-05-06 15:04 48.15705 9.46187 23362 ft 451 kts 359°
2026-05-06 15:04 48.18858 9.46180 23872 ft 456 kts 359°
2026-05-06 15:05 48.22051 9.46182 24335 ft 460 kts 359°
2026-05-06 15:05 48.25261 9.46189 24783 ft 464 kts 359°
2026-05-06 15:05 48.28511 9.46196 25285 ft 468 kts 359°
2026-05-06 15:05 48.31789 9.46203 25737 ft 472 kts 359°
2026-05-06 15:06 48.35128 9.46209 26183 ft 476 kts 359°
2026-05-06 15:06 48.38409 9.46214 26599 ft 480 kts 358°
2026-05-06 15:06 48.41755 9.46217 27009 ft 483 kts 358°
2026-05-06 15:06 48.45132 9.46219 27418 ft 487 kts 358°
2026-05-06 15:07 48.48538 9.46221 27827 ft 491 kts 358°
2026-05-06 15:07 48.51963 9.46217 28229 ft 494 kts 358°
2026-05-06 15:07 48.55411 9.46207 28594 ft 498 kts 358°
2026-05-06 15:07 48.58891 9.46177 28972 ft 501 kts 357°
2026-05-06 15:08 48.62376 9.46136 29344 ft 504 kts 358°
2026-05-06 15:08 48.65882 9.46523 29842 ft 508 kts
2026-05-06 15:08 48.69337 9.47791 30378 ft 509 kts 18°
2026-05-06 15:08 48.72590 9.49867 30850 ft 508 kts 28°
2026-05-06 15:09 48.75581 9.52714 31312 ft 506 kts 38°
2026-05-06 15:09 48.78215 9.56247 31760 ft 504 kts 49°
2026-05-06 15:09 48.79733 9.58902 32043 ft 503 kts 53°
2026-05-06 15:09 48.81944 9.63025 32475 ft 504 kts 53°
2026-05-06 15:10 48.84159 9.67155 32851 ft 505 kts 53°
2026-05-06 15:10 48.86380 9.71294 33238 ft 507 kts 53°
2026-05-06 15:10 48.88616 9.75460 33669 ft 508 kts 53°
2026-05-06 15:10 48.90853 9.79633 34047 ft 510 kts 53°
2026-05-06 15:11 48.93091 9.83816 34431 ft 510 kts 53°
2026-05-06 15:11 48.95327 9.88006 34912 ft 508 kts 53°
2026-05-06 15:11 48.97546 9.92175 35397 ft 506 kts 53°
2026-05-06 15:11 48.99750 9.96325 35868 ft 503 kts 53°
2026-05-06 15:12 49.01942 10.00455 36328 ft 501 kts 53°
2026-05-06 15:12 49.04126 10.04574 36774 ft 499 kts 53°
2026-05-06 15:12 49.06302 10.08683 37213 ft 497 kts 53°
2026-05-06 15:12 49.08468 10.12782 37714 ft 495 kts 53°
2026-05-06 15:13 49.10623 10.16870 38143 ft 494 kts 53°
2026-05-06 15:13 49.12772 10.20952 38534 ft 493 kts 53°
2026-05-06 15:13 49.14998 10.24945 38742 ft 494 kts 47°
2026-05-06 15:14 49.19821 10.32407 38809 ft 493 kts 47°
2026-05-06 15:14 49.24628 10.39863 38800 ft 492 kts 47°
2026-05-06 15:15 49.29474 10.47299 38794 ft 495 kts 46°
2026-05-06 15:15 49.34363 10.54767 38795 ft 497 kts 46°
2026-05-06 15:16 49.39199 10.62349 38808 ft 497 kts 47°
2026-05-06 15:16 49.43919 10.70036 38811 ft 497 kts 48°
2026-05-06 15:17 49.48717 10.77708 38792 ft 498 kts 46°
2026-05-06 15:17 49.53563 10.85318 38776 ft 498 kts 46°
2026-05-06 15:18 49.58449 10.93006 38737 ft 500 kts 47°
2026-05-06 15:18 49.60874 10.96848 38403 ft 500 kts 47°
2026-05-06 15:18 49.63293 11.00706 37985 ft 500 kts 47°
2026-05-06 15:18 49.65709 11.04569 37560 ft 500 kts 47°
2026-05-06 15:19 49.68122 11.08428 37168 ft 500 kts 46°
2026-05-06 15:19 49.70545 11.12302 36770 ft 500 kts 46°
2026-05-06 15:19 49.73035 11.16053 36383 ft 501 kts 39°
2026-05-06 15:19 49.75903 11.19085 35994 ft 500 kts 27°
2026-05-06 15:20 49.79086 11.21201 35619 ft 497 kts 14°
2026-05-06 15:20 49.82449 11.22331 35244 ft 493 kts
2026-05-06 15:20 49.85864 11.22537 34872 ft 490 kts 356°
2026-05-06 15:20 49.89273 11.22553 34528 ft 490 kts 356°
2026-05-06 15:21 49.92688 11.22561 34171 ft 491 kts 356°
2026-05-06 15:21 49.96103 11.22570 33817 ft 491 kts 356°
2026-05-06 15:21 49.99551 11.22581 33406 ft 492 kts 356°
2026-05-06 15:21 50.02947 11.22597 33000 ft 492 kts 356°
2026-05-06 15:22 50.06379 11.22617 32591 ft 493 kts 356°
2026-05-06 15:22 50.09811 11.22640 32192 ft 493 kts 356°
2026-05-06 15:22 50.13242 11.22664 31845 ft 494 kts 356°
2026-05-06 15:22 50.16678 11.22689 31744 ft 494 kts 356°
2026-05-06 15:23 50.20115 11.22713 31778 ft 495 kts 356°
2026-05-06 15:23 50.26996 11.22752 31775 ft 495 kts 356°
2026-05-06 15:24 50.33852 11.23942 31780 ft 501 kts 15°
2026-05-06 15:24 50.37086 11.26007 31769 ft 503 kts 27°
2026-05-06 15:24 50.40012 11.29020 31772 ft 504 kts 39°
2026-05-06 15:25 50.45092 11.36580 31768 ft 504 kts 45°
2026-05-06 15:25 50.50100 11.44274 31769 ft 504 kts 45°
2026-05-06 15:26 50.55701 11.50692 31767 ft 503 kts 24°
2026-05-06 15:26 50.58975 11.52566 31763 ft 500 kts 12°
2026-05-06 15:26 50.62390 11.53430 31764 ft 495 kts
2026-05-06 15:27 50.69275 11.53770 31761 ft 495 kts 358°
2026-05-06 15:27 50.76159 11.54108 31767 ft 495 kts 358°
2026-05-06 15:28 50.83050 11.54450 31762 ft 495 kts 359°
2026-05-06 15:28 50.89938 11.54789 31763 ft 495 kts 359°
2026-05-06 15:29 50.96826 11.55132 31767 ft 495 kts 359°
2026-05-06 15:29 51.03710 11.55467 31765 ft 495 kts 359°
2026-05-06 15:30 51.10594 11.55809 31768 ft 495 kts 359°
2026-05-06 15:30 51.14038 11.56098 31637 ft 496 kts
2026-05-06 15:30 51.17488 11.56581 31385 ft 497 kts
2026-05-06 15:30 51.20927 11.57209 31128 ft 498 kts
2026-05-06 15:31 51.24324 11.58378 30866 ft 501 kts 17°
2026-05-06 15:31 51.27525 11.60560 29839 ft 501 kts 28°
2026-05-06 15:31 51.30390 11.63654 28344 ft 506 kts 40°
2026-05-06 15:32 51.34840 11.72302 25502 ft 501 kts 64°
2026-05-06 15:32 51.36137 11.77379 24209 ft 484 kts 76°
2026-05-06 15:32 51.36817 11.82556 22966 ft 469 kts 82°
2026-05-06 15:32 51.37363 11.87645 21624 ft 458 kts 82°
2026-05-06 15:33 51.37890 11.92607 20385 ft 448 kts 82°
2026-05-06 15:33 51.38404 11.97470 19209 ft 438 kts 82°
2026-05-06 15:33 51.38908 12.02223 18116 ft 429 kts 82°
2026-05-06 15:33 51.39405 12.06887 16897 ft 422 kts 82°
2026-05-06 15:34 51.39891 12.11481 15747 ft 416 kts 82°
2026-05-06 15:34 51.40368 12.16012 14838 ft 408 kts 82°
2026-05-06 15:34 51.40843 12.20536 13999 ft 405 kts 82°
2026-05-06 15:34 51.41304 12.24954 13127 ft 400 kts 82°
2026-05-06 15:35 51.41759 12.29336 12314 ft 397 kts 82°
2026-05-06 15:35 51.42206 12.33676 11503 ft 394 kts 82°
2026-05-06 15:35 51.42645 12.37970 10920 ft 385 kts 82°
2026-05-06 15:35 51.43067 12.42089 10792 ft 364 kts 82°
2026-05-06 15:36 51.43354 12.45993 10671 ft 343 kts 91°
2026-05-06 15:36 51.43167 12.49706 10551 ft 325 kts 103°
2026-05-06 15:36 51.42629 12.53122 10410 ft 310 kts 108°
2026-05-06 15:36 51.42074 12.56414 10136 ft 303 kts 108°
2026-05-06 15:37 51.41524 12.59710 9897 ft 301 kts 108°
2026-05-06 15:37 51.40987 12.62930 9686 ft 299 kts 109°
2026-05-06 15:37 51.40441 12.66155 9560 ft 299 kts 109°
2026-05-06 15:37 51.39896 12.69359 9426 ft 298 kts 108°
2026-05-06 15:38 51.39350 12.72566 9290 ft 298 kts 108°
2026-05-06 15:38 51.38822 12.75792 8833 ft 303 kts 104°
2026-05-06 15:38 51.38991 12.79141 8435 ft 305 kts 70°
2026-05-06 15:38 51.40203 12.81862 8001 ft 301 kts 37°
2026-05-06 15:39 51.42062 12.83181 7366 ft 291 kts
2026-05-06 15:39 51.44007 12.82718 6680 ft 279 kts 330°
2026-05-06 15:39 51.45468 12.80804 5979 ft 270 kts 303°
2026-05-06 15:39 51.46197 12.78104 5355 ft 265 kts 277°
2026-05-06 15:40 51.46079 12.75239 5072 ft 253 kts 251°
2026-05-06 15:40 51.45250 12.72876 4970 ft 236 kts 231°
2026-05-06 15:40 51.44255 12.70887 4890 ft 221 kts 231°
2026-05-06 15:40 51.43514 12.68823 4824 ft 208 kts 249°
2026-05-06 15:41 51.43213 12.66591 4732 ft 207 kts 264°
2026-05-06 15:41 51.43114 12.64280 4640 ft 208 kts 265°
2026-05-06 15:41 51.43017 12.61969 4550 ft 208 kts 264°
2026-05-06 15:41 51.42918 12.59664 4454 ft 207 kts 264°
2026-05-06 15:42 51.42818 12.57344 4315 ft 208 kts 265°
2026-05-06 15:42 51.42719 12.55063 4087 ft 205 kts 264°
2026-05-06 15:42 51.42620 12.52795 3820 ft 203 kts 264°
2026-05-06 15:42 51.42522 12.50559 3577 ft 198 kts 265°
2026-05-06 15:43 51.42427 12.48393 3293 ft 193 kts 265°
2026-05-06 15:43 51.42334 12.46285 3041 ft 188 kts 265°
2026-05-06 15:43 51.42244 12.44266 2801 ft 175 kts 265°
2026-05-06 15:43 51.42164 12.42469 2578 ft 150 kts 266°
2026-05-06 15:44 51.42092 12.40871 2387 ft 135 kts 266°
2026-05-06 15:44 51.42028 12.39432 2207 ft 130 kts 266°
2026-05-06 15:44 51.41963 12.37997 2042 ft 129 kts 267°
2026-05-06 15:44 51.41899 12.36562 1874 ft 129 kts 268°
2026-05-06 15:45 51.41834 12.35127 1702 ft 129 kts 269°
2026-05-06 15:45 51.41769 12.33688 1515 ft 129 kts 268°
2026-05-06 15:45 51.41698 12.32258 1365 ft 129 kts 268°
2026-05-06 15:45 51.41652 12.31293 1225 ft 131 kts 270°
2026-05-06 15:46 51.41578 12.29857 1077 ft 131 kts 269°
2026-05-06 15:46 51.41516 12.28403 909 ft 130 kts 271°
2026-05-06 15:46 51.41457 12.26956 699 ft 129 kts 269°
2026-05-06 15:46 51.41395 12.25530 520 ft 128 kts 270°
2026-05-06 15:47 51.41342 12.24251 472 ft 96 kts 265°
2026-05-06 15:47 51.41301 12.23467 464 ft 41 kts 265°
2026-05-06 15:47 51.41309 12.23288 465 ft 10 kts 306°
2026-05-06 15:47 51.41392 12.23249 460 ft 16 kts 356°
2026-05-06 15:48 51.41470 12.23240 461 ft 10 kts 355°
2026-05-06 15:48 51.41545 12.23230 462 ft 11 kts 355°
2026-05-06 15:48 51.41607 12.23177 465 ft 11 kts 299°
2026-05-06 15:48 51.41632 12.23040 464 ft 14 kts 286°
2026-05-06 15:49 51.41659 12.22885 464 ft 15 kts 285°
2026-05-06 15:49 51.41683 12.22747 461 ft 11 kts 285°
2026-05-06 15:49 51.41704 12.22626 461 ft 12 kts 285°
2026-05-06 15:49 51.41724 12.22507 456 ft 10 kts 285°
2026-05-06 15:50 51.41744 12.22392 456 ft 11 kts 285°
2026-05-06 15:50 51.41767 12.22261 452 ft 13 kts 285°
2026-05-06 15:50 51.41791 12.22115 448 ft 13 kts 285°
2026-05-06 15:50 51.41813 12.21988 439 ft 11 kts 285°
2026-05-06 15:51 51.41833 12.21873 443 ft 11 kts 285°
2026-05-06 15:51 51.41848 12.21785 442 ft 6 kts 285°
2026-05-06 15:51 51.41877 12.21748 438 ft 6 kts
2026-05-06 15:51 51.41912 12.21764 440 ft 4 kts 17°
2026-05-06 15:52 51.41923 12.21769 439 ft 0 kts 16°
2026-05-06 15:54 51.41940 12.21776 438 ft 0 kts 15°